Change the Weather History Date:

Tuesday, March 18, 2014

  Actual Average Record
Temperature  
Mean Temperature 42 °F 53 °F  
Max Temperature 50 °F 63 °F 84 °F (1963)
Min Temperature 34 °F 43 °F 19 °F (1967)
Degree Days  
Heating Degree Days 23 12  
Month to date heating degree days 278 255  
Since 1 July heating degree days 2947 2719  
Cooling Degree Days 0 0  
Month to date cooling degree days 0 0  
Year to date cooling degree days 0 0  
Moisture  
Dew Point 35 °F    
Average Humidity 84    
Maximum Humidity 96    
Minimum Humidity 71    
Precipitation  
Precipitation 0.00 in 0.19 in 1.48 in (1965)
Month to date precipitation 2.77 3.36  
Year to date precipitation 8.76 13.26  
Sea Level Pressure  
Sea Level Pressure 29.97 in    
Wind  
Wind Speed 8 mph (East)    
Max Wind Speed 15 mph    
Max Gust Speed 20 mph    
Visibility 9 miles    
Events      
T = Trace of Precipitation, MM = Missing Value Source: NWS Daily Summary

Daily Weather History Graph

Daily Weather History Graph

Search for Another Location

Airport or City:

Trip Planner

Search our weather history database for the weather conditions in past years. The results will help you decide how hot, cold, wet, or windy it might be!

Date:

Astronomy

Mar. 18, 2014 Rise Set
Actual Time 7:41 AM EDT 7:45 PM EDT
Civil Twilight 7:16 AM EDT 8:10 PM EDT
Nautical Twilight 6:47 AM EDT 8:39 PM EDT
Astronomical Twilight 6:18 AM EDT 9:09 PM EDT
Moon 9:54 PM EDT (3/18) 8:36 AM EDT (3/18)
Length of Visible Light 12h 53m
Length of Day
12h 03m
Waning Gibbous, 96% of the Moon is Illuminated
Mar 18
Waning Gibbous
Mar 23
Last Quarter
Mar 30
New
Apr 7
First Quarter
Apr 15
Full

Hourly Weather History & Observations

Time (EDT) Temp. Windchill Dew Point Humidity Pressure Visibility Wind Dir Wind Speed Gust Speed Precip Events Conditions
12:36 AM 35.1 °F 27.4 °F 33.1 °F 92% 29.88 in 6.0 mi East 10.4 mph - 0.00 in   Overcast
12:53 AM 35.1 °F 26.9 °F 33.1 °F 92% 29.90 in 5.0 mi East 11.5 mph - 0.00 in   Overcast
1:23 AM 35.1 °F 26.4 °F 32.0 °F 89% 29.88 in 8.0 mi East 12.7 mph - N/A   Overcast
1:53 AM 35.1 °F 27.4 °F 32.0 °F 89% 29.89 in 10.0 mi ENE 10.4 mph - N/A   Overcast
2:04 AM 35.1 °F 28.6 °F 30.9 °F 85% 29.88 in 10.0 mi ENE 8.1 mph - N/A   Overcast
2:33 AM 35.1 °F 27.4 °F 30.9 °F 85% 29.88 in 10.0 mi ENE 10.4 mph - N/A   Overcast
2:46 AM 35.1 °F 26.9 °F 30.9 °F 85% 29.88 in 10.0 mi ENE 11.5 mph - N/A   Overcast
2:53 AM 35.1 °F 27.9 °F 30.9 °F 85% 29.89 in 10.0 mi ENE 9.2 mph - N/A   Overcast
3:40 AM 34.0 °F 26.0 °F 30.9 °F 89% 29.85 in 8.0 mi ENE 10.4 mph - N/A   Overcast
3:53 AM 34.0 °F 27.2 °F 30.9 °F 89% 29.86 in 7.0 mi East 8.1 mph - N/A   Overcast
4:41 AM 34.0 °F 27.2 °F 30.9 °F 89% 29.85 in 6.0 mi East 8.1 mph - N/A   Overcast
4:53 AM 34.0 °F 25.5 °F 30.9 °F 89% 29.88 in 7.0 mi East 11.5 mph - N/A   Overcast
5:53 AM 34.0 °F 27.2 °F 32.0 °F 92% 29.90 in 3.0 mi East 8.1 mph - N/A   Overcast
6:46 AM 34.0 °F 28.0 °F 32.0 °F 92% 29.87 in 7.0 mi ENE 6.9 mph - N/A   Overcast
6:53 AM 34.0 °F 26.6 °F 32.0 °F 92% 29.89 in 7.0 mi NE 9.2 mph - N/A   Overcast
7:50 AM 35.6 °F 29.9 °F 32.0 °F 87% 29.90 in 8.0 mi NE 6.9 mph - N/A   Overcast
7:53 AM 35.1 °F 28.6 °F 32.0 °F 89% 29.91 in 9.0 mi NNE 8.1 mph - N/A   Overcast
8:53 AM 36.0 °F 28.5 °F 32.0 °F 86% 29.94 in 10.0 mi East 10.4 mph - N/A   Overcast
9:10 AM 36.0 °F 28.0 °F 32.0 °F 86% 29.93 in 10.0 mi East 11.5 mph - N/A   Overcast
9:46 AM 36.0 °F 30.3 °F 33.1 °F 89% 29.95 in 10.0 mi East 6.9 mph - N/A   Overcast
9:53 AM 37.0 °F 30.4 °F 33.1 °F 86% 29.97 in 10.0 mi East 9.2 mph - N/A   Overcast
10:03 AM 37.0 °F 30.4 °F 32.0 °F 82% 29.96 in 10.0 mi East 9.2 mph - N/A   Overcast
10:23 AM 37.0 °F 31.0 °F 32.0 °F 82% 29.98 in 10.0 mi East 8.1 mph - N/A   Overcast
10:45 AM 37.9 °F 31.5 °F 33.1 °F 83% 30.00 in 10.0 mi East 9.2 mph - N/A   Overcast
10:53 AM 37.9 °F 31.5 °F 33.1 °F 83% 30.01 in 10.0 mi East 9.2 mph - N/A   Overcast
11:53 AM 39.9 °F 34.5 °F 34.0 °F 79% 30.06 in 10.0 mi East 8.1 mph - N/A   Overcast
12:53 PM 42.1 °F 37.7 °F 35.1 °F 76% 30.07 in 10.0 mi ENE 6.9 mph - N/A   Overcast
1:53 PM 43.0 °F 38.2 °F 36.0 °F 76% 30.06 in 10.0 mi ENE 8.1 mph - N/A   Overcast
2:53 PM 45.0 °F 40.6 °F 37.0 °F 74% 30.05 in 10.0 mi ENE 8.1 mph - N/A   Overcast
3:17 PM 45.0 °F 39.3 °F 37.0 °F 74% 30.03 in 10.0 mi East 11.5 mph - N/A   Overcast
3:53 PM 46.9 °F - 37.9 °F 71% 30.04 in 10.0 mi ENE 9.2 mph - N/A   Overcast
4:53 PM 48.0 °F - 39.0 °F 71% 30.03 in 10.0 mi Variable 6.9 mph - N/A   Overcast
5:53 PM 48.9 °F - 39.9 °F 71% 30.01 in 10.0 mi East 9.2 mph - N/A   Overcast
6:53 PM 48.9 °F - 39.9 °F 71% 30.01 in 10.0 mi East 8.1 mph - N/A   Overcast
7:17 PM 48.0 °F - 39.9 °F 74% 30.02 in 10.0 mi East 5.8 mph - N/A   Scattered Clouds
7:53 PM 46.9 °F - 39.0 °F 74% 30.03 in 10.0 mi East 6.9 mph - N/A   Clear
8:53 PM 46.0 °F 44.8 °F 39.0 °F 76% 30.05 in 10.0 mi ESE 3.5 mph - N/A   Clear
9:44 PM 46.0 °F 43.9 °F 39.9 °F 79% 30.07 in 10.0 mi ESE 4.6 mph - N/A   Mostly Cloudy
9:53 PM 46.0 °F 43.1 °F 39.9 °F 79% 30.08 in 10.0 mi ESE 5.8 mph - N/A   Overcast
10:53 PM 46.0 °F 41.9 °F 39.9 °F 79% 30.09 in 10.0 mi ESE 8.1 mph - N/A   Overcast
11:24 PM 45.0 °F 40.6 °F 39.9 °F 82% 30.11 in 10.0 mi East 8.1 mph - N/A   Overcast
11:53 PM 44.1 °F 38.6 °F 39.0 °F 82% 30.13 in 10.0 mi East 10.4 mph - N/A   Overcast